CZ-6A DEB, 55199

Orbit data source: Space-Track

CZ-6A DEB, 55199 is space debris in SSO originally from a launch on Fri, 11 Nov 2022 UTC launched from the Taiyaun Space Center, China (TSC). Debris objects in space refer to the collection of defunct objects orbiting the Earth. Examples of debris include non-operational satellites, rocket bodies, and fragments generated from explosions, collisions, or faulty payload assembly.

Loading next visibility...
Identifier
55199, 2022-151VQ
Orbit
SSO
Country
Flag of CNCN / PRC
Related business
Manufacturer
SAST
Mission
Spacecraft
Bus & Motor
Unknown
Mass
Unknown
Launch date (UTC)
2022-11-11 (3 years ago)
Launch vehicle
Unknown
Launch site
Taiyaun Space Center, China (TSC)
Object type
Payload
Rocket body
Debris
Shape & HBR
Unknown shape, 0.1 m
Radar Cross Section
Small (<0.1 m²)

Expand to show TLE details & history
Last TLE update: 21 hours ago

TLE from 21 hours ago
0 CZ-6A DEB
1 55199U 22151VQ  25352.49977542  .00002655  00000-0  12393-2 0  9992
2 55199  98.8082 358.2867 0043395 119.0897 241.4636 14.20729368154901
Epoch: 2025-12-18T11:59Z
TLE epoch observation values (Epoch: 2025-12-18T11:59:40.596Z)
Latitude
0.00005°
Longitude
91.01314°
Altitude
840.835 km
Speed
7.425 km/s
True Right ascension
23h 53m 08s
True Declination
0° 00' 00"
Sunlit
Object was in daylight at epoch
Visualization orbit readout
Latitude
Unknown
Longitude
Unknown
Altitude
Unknown
Speed
Unknown
Apparent Right ascension
Unknown
Apparent Declination
Unknown
Sunlit
N/A
Visualization observer readout
Local Sidereal Time
08:02:51
Azimuth
Unknown
Elevation
Unknown
Doppler factor
Unknown
Orbital elements
Apogee altitude
851.286 km
Perigee altitude
788.813 km
Semi-major axis
7,198.186 km
Eccentricity
0.00434
Inclination
98.8082°
RAAN
358.2867°
Arg. of periapsis
119.0897°
True anomaly
241.02787°
Mean anomaly
241.4636°
Eccentric anomaly
241.24562°
Mean motion
3.55393 °/min
Orbital period
101.3 mins
BSTAR
0.0012393
Loading maneuver chart data...
Computing Atmospheric mass density...
Loading historical data...
Loading historical data...
Loading historical data...
Loading historical data...
Loading historical data...
Loading historical data...
Loading historical data...

Documentation

Showing up to 5 results
|